Flag for Canada Weather past 2 weeks in Windsor, Ontario, Canada

Now
43 °F

Passing clouds.


Feels Like: 37 °F
Forecast: 45 / 58 °F
Wind: 10 mph from East

Location: Windsor Weather Station

Current Time: Apr 19, 2015 at 6:27:10 AM

Latest Report: Apr 19, 2015 at 5:00 AM


Visibility: 15 mi

Pressure: 30.09 "Hg

Humidity: 76%

Dew point: 36 °F

Location of WindsorLocation

Historic Weather in Windsor — Graph

°F

Windsor temperature yesterday

Maximum temperature yesterday: 70 °F (at 11:00 AM)
Minimum temperature yesterday: 45 °F (at 5:00 AM)
Average temperature yesterday: 56 °F

Past Weeks' High & Low Weather Summary

 TemperatureHumidityPressure
High72 °F (Apr 13, 2:00 PM)100% (Apr 6, 5:00 AM)30.40 "Hg (Apr 6, 5:00 AM)
Low27 °F (Apr 4, 6:00 AM)25% (Apr 15, 3:00 PM)29.46 "Hg (Apr 10, 6:00 AM)
Average48 °F70%30.09 "Hg
* Reported Apr 4 5:00 AM — Apr 19 5:00 AM, Windsor, Weather by CustomWeather, © 2015

Note: Actual official high and low records may vary slightly from our data, if they occured in-between our weather recording intervals... More about our weather records

Advertising

Windsor weather history for previous 24 hours

 ConditionsComfort  
Time TempWeatherWind HumidityBarometerVisibility
5:00 AM
Sun, Apr 19
43 °FPassing clouds.10 mph76%30.09 "Hg15 mi
4:00 AM45 °FPassing clouds.14 mph71%30.09 "Hg15 mi
3:00 AM43 °FPassing clouds.9 mph81%30.11 "Hg15 mi
2:00 AM43 °FPassing clouds.13 mph76%30.12 "Hg15 mi
1:00 AM43 °FPassing clouds.12 mph76%30.13 "Hg15 mi
12:00 AM43 °FPassing clouds.12 mph76%30.16 "Hg15 mi
11:00 PM
Sat, Apr 18
45 °FPassing clouds.12 mph66%30.15 "Hg15 mi
10:00 PM46 °FPassing clouds.17 mph66%30.14 "Hg15 mi
9:00 PM48 °FPartly sunny.17 mph62%30.14 "Hg15 mi
8:00 PM52 °FPartly sunny.17 mph50%30.14 "Hg15 mi
7:00 PM57 °FPartly sunny.17 mph39%30.11 "Hg15 mi
6:00 PM61 °FBroken clouds.16 mph25%30.11 "Hg15 mi
5:00 PM63 °FBroken clouds.18 mph30%30.12 "Hg15 mi
4:00 PM63 °FBroken clouds.20 mph34%30.13 "Hg15 mi
3:00 PM64 °FScattered clouds.21 mph34%30.12 "Hg15 mi
2:00 PM63 °FScattered clouds.22 mph37%30.10 "Hg15 mi
1:00 PM64 °FScattered clouds.21 mph40%30.10 "Hg15 mi
12:00 PM70 °FPartly sunny.17 mph38%30.07 "Hg15 mi
11:00 AM70 °FScattered clouds.14 mph40%30.06 "Hg15 mi
10:00 AM66 °FBroken clouds.8 mph46%30.05 "Hg15 mi
9:00 AM59 °FBroken clouds.5 mph63%30.04 "Hg15 mi
8:00 AM55 °FPartly sunny.7 mph72%30.03 "Hg15 mi
7:00 AM50 °FPassing clouds.5 mph76%30.02 "Hg15 mi
6:00 AM48 °FPassing clouds.5 mph87%30.01 "Hg12 mi
Weather by CustomWeather, © 2015

See weather overviewHow to use our weather pages